Location: Northcutt
(34.7304°N, 84.4305°W)
Time: 06:59:38
(UTC+00:00)

Transit 2A Rocket - Pass Details

Date: 09 October 2022
Orbit: 589 x 911 km, 66.7° (Epoch: 04 December)

Event Time Altitude Azimuth Distance (km) Brightness Sun altitude
Exits shadow 09:36:15 40° 12° (NNE) 871 5.4 -25.9°
Drops below altitude 10° 09:39:05 10° 23° (NNE) 1,925 7.5 -25.3°
Sets 09:41:21 0° 25° (NNE) 2,845 8.4 -24.8°
